A/2019 G2

Japanese version
Home page
Updated on January 23, 2020

---------------------------------------------------------------------

* Profile

Discovery Date April 2, 2019
Magnitude 21.3 mag
Discoverer Pan-STARRS 1 telescope (Haleakala)

* Pictures

* Orbital Elements

Epoch 2019 Dec. 23.0 TT = JDT 2458840.5
T 2019 Dec. 10.06172 TT                                 Williams
q   2.2913568            (2000.0)            P               Q
z  +0.0013952      Peri.   82.65272     -0.55012728     +0.81812780
 +/-0.0000023      Node   208.14431     +0.55476040     +0.50788534
e   0.9968031      Incl.  159.21163     +0.62418017     +0.26966533
H   16.5
From 78 observations 2019 Apr. 2-2020 Jan. 5, mean residual 0".4.

* Magnitudes Graph

        H = 16.5  G = 0.15

---------------------------------------------------------------------

The orbital elements are published on M.P.E.C. 2020-A105.
The magnitudes graphs are made with Comet for Windows.

---------------------------------------------------------------------

Copyright(C) Seiichi Yoshida (comet@aerith.net). All rights reserved.